Hovedside
METAR-TAF:

METAR-TAF

Lufthavner :

Tillamook, Oregon, USA

breddegrad: 45-25-06N, lengdegrad: 123-48-52W, høyde over havet: 11 m

Gjeldene værobservasjon

Denne rapporten ble laget for 11 minutter siden, klokken 17:35 UTC
Vind 4 kt fra Nordvest
Temperatur 13°C
Luftfuktighet 67%
Trykk 1020 hPa
Sikt: 16.1 km
Skyfri himmel

METAR: KTMK 091735Z AUTO 31004KT 10SM CLR 13/07 A3011 RMK AO2

Tid: 10:46 (17:46 UTC)


TAF: fraværende

Værobservasjoner og værvarsel for over 4000 flyplasser (METAR- og TAF-rapporter).

Tilgjengelige stasjoner er representert av de røde og gule prikkene på kartet.

Hold musepekeren over prikken for å se navnet på stasjonen.

Klikk så for å se værobservasjoner og -varsler.

For å forandre kartet kan du klikke på den grønne knappen med svart kryss for å zoome inn, på den grønne knappen med strek for å zoome ut, eller på de grønne pilene for å se tilstøtende kart.


METAR-TAF: